OPS 4682 DEB, 38408

Orbit data source: Space-Track

OPS 4682 DEB, 38408 is space debris in LEO originally from a launch on Sat, 03 Apr 1965 UTC launched from the Air Force Western Test Range (AFWTR). Debris objects in space refer to the collection of defunct objects orbiting the Earth. Examples of debris include non-operational satellites, rocket bodies, and fragments generated from explosions, collisions, or faulty payload assembly.

Loading next visibility...
Identifier
38408, 1965-027DM
Orbit
LEO
Country
Flag of USUS
Related business
Manufacturer
Unknown
Mission
Spacecraft
Bus & Motor
Unknown
Mass
Unknown
Launch date (UTC)
1965-04-03 (61 years ago)
Launch vehicle
Unknown
Launch site
Air Force Western Test Range (AFWTR)
Object type
Payload
Rocket body
Debris
Shape & HBR
Unknown shape, 0.1 m
Radar Cross Section
Small (<0.1 m²)

Expand to show TLE details & history
Last TLE update: 4 days ago

TLE from 4 days ago
0 OPS 4682 DEB
1 38408U 65027DM  26101.21168062  .00001467  00000-0  46826-2 0  9995
2 38408  90.2908  13.6791 0044631 346.1815  13.8083 13.02164715596492
Epoch: 2026-04-11T05:04Z
TLE epoch observation values (Epoch: 2026-04-11T05:04:49.205Z)
Latitude
-0.00008°
Longitude
98.03984°
Altitude
1,223.429 km
Speed
7.258 km/s
True Right ascension
00h 54m 42s
True Declination
0° 00' 00"
Sunlit
Object was in daylight at epoch
Visualization orbit readout
Latitude
Unknown
Longitude
Unknown
Altitude
Unknown
Speed
Unknown
Apparent Right ascension
Unknown
Apparent Declination
Unknown
Sunlit
N/A
Visualization observer readout
Local Sidereal Time
04:21:49
Azimuth
Unknown
Elevation
Unknown
Doppler factor
Unknown
Orbital elements
Apogee altitude
1,284.789 km
Perigee altitude
1,216.692 km
Semi-major axis
7,628.878 km
Eccentricity
0.00446
Inclination
90.2908°
RAAN
13.6791°
Arg. of periapsis
346.1815°
True anomaly
13.93103°
Mean anomaly
13.8083°
Eccentric anomaly
13.8696°
Mean motion
3.25726 °/min
Orbital period
110.52 mins
BSTAR
0.0046826
Loading maneuver chart data...
Computing Atmospheric mass density...
Loading historical data...
Loading historical data...
Loading historical data...
Loading historical data...
Loading historical data...
Loading historical data...
Loading historical data...

Documentation

Showing up to 5 results
|